GFSNIL_850_temp_072.txt.gz
Temp
10 10 10 10 10 10 9 10 10 9 9 9 9 9 10 10 10 11 11 11 12 11
9 9 10 10 10 11 10 10 10 10 10 9 10 10 11 11 11 11 11 11 11 11
9 9 9 9 9 10 10 10 10 10 10 10 10 11 11 11 11 10 10 10 10 10
9 9 9 8 9 10 10 10 10 10 10 10 10 11 11 10 10 10 10 10 10 11
10 9 8 9 8 9 9 10 10 10 10 10 10 10 10 10 10 10 10 10 10 10
12 11 9 9 8 8 9 9 9 10 9 10 10 10 10 10 10 10 10 10 10 10
13 14 13 11 9 8 8 8 8 8 9 9 9 9 9 10 10 10 10 10 10 10
12 12 12 11 11 11 10 8 8 8 8 8 8 8 8 8 9 9 9 9 9 9
9 10 10 11 12 12 11 10 10 8 8 8 8 9 8 8 9 8 8 8 9 9
10 10 9 9 10 10 11 11 11 10 10 9 9 9 9 9 9 8 8 8 8 8
10 9 9 9 9 9 10 10 11 11 11 10 11 11 10 9 9 9 9 9 9 9
9 9 10 10 10 10 9 9 10 10 10 10 10 10 10 10 10 10 10 9 9 9
6 5 6 8 8 9 10 9 10 10 9 10 10 10 10 10 10 10 10 9 9 9
5 4 4 4 5 6 8 8 9 10 9 8 9 9 9 10 10 10 8 9 8 7

GFSNIL_850_temp_075.txt.gz
Temp
10 10 10 9 9 9 10 9 10 9 9 9 9 9 9 9 9 9 10 9 9 10
10 10 10 10 9 9 9 9 9 9 9 9 9 9 9 9 9 10 9 9 9 9
10 10 10 10 10 10 9 9 9 9 9 9 9 9 9 9 9 9 9 9 9 9
10 9 9 9 10 10 10 10 10 9 9 9 9 9 9 9 9 9 9 10 10 10
10 9 9 9 8 9 10 9 9 10 9 9 9 9 9 9 9 9 9 10 10 11
11 10 9 8 9 8 8 9 9 9 9 9 9 9 9 9 9 10 10 10 10 10
11 10 10 10 9 9 9 8 9 9 9 9 9 9 9 9 9 10 10 10 10 10
10 10 10 9 9 9 9 9 9 8 8 9 9 9 8 9 9 9 9 9 9 10
9 9 9 9 9 9 9 9 9 8 8 8 8 8 8 8 8 8 8 8 8 8
9 9 9 9 9 9 9 9 9 9 9 9 9 8 8 8 8 8 8 8 8 8
9 9 8 8 8 9 9 9 8 9 9 9 9 9 8 8 8 8 8 8 8 8
9 9 9 8 8 8 8 8 9 8 8 8 9 9 9 9 9 9 9 9 8 8
7 7 6 5 5 5 6 6 6 7 8 8 8 8 9 9 9 9 8 8 8 8
6 5 3 3 3 4 4 4 3 3 3 3 4 4 4 5 6 7 7 5 4 2

GFSNIL_850_temp_081.txt.gz
Temp
9 9 9 9 9 9 9 9 9 9 9 10 9 9 9 10 10 10 10 9 10 10
9 9 9 10 9 8 8 9 9 9 9 9 9 9 8 9 10 9 9 9 9 10
10 9 9 9 8 9 8 8 8 9 9 9 9 9 8 9 8 8 8 9 9 9
10 10 10 10 9 9 8 8 8 9 9 9 9 9 9 8 8 8 8 7 8 9
10 9 9 9 8 8 8 8 8 8 8 8 9 9 8 8 8 8 8 8 8 8
9 9 9 9 8 8 8 8 8 8 8 8 8 8 9 9 9 9 9 9 8 8
9 9 9 9 8 8 8 8 8 8 8 8 8 8 8 9 9 8 8 9 9 8
9 9 9 9 9 9 9 9 8 8 8 8 8 8 8 9 9 9 9 9 9 9
9 9 9 9 8 8 8 8 8 8 8 8 8 8 8 8 8 8 8 9 9 8
8 8 8 8 8 8 8 8 8 8 8 8 8 8 8 9 8 8 8 8 8 8
7 6 7 7 7 7 7 7 7 7 7 7 8 8 8 8 8 8 8 8 7 7
5 4 4 5 5 5 5 5 6 6 6 5 6 6 7 7 7 7 7 7 7 6
3 2 2 2 2 3 3 3 3 3 3 3 3 3 4 5 5 5 5 4 3 3
-0 0 0 1 1 2 2 2 1 1 1 1 2 2 2 2 2 2 1 1 0 -0

GFSNIL_850_temp_087.txt.gz
Temp
11 11 11 10 11 11 11 11 11 11 9 9 9 10 10 10 9 10 10 10 10 11
11 10 10 10 11 10 10 10 10 10 9 9 9 9 9 9 9 10 10 10 10 10
10 10 10 10 10 10 10 10 10 10 9 9 9 9 9 9 9 9 9 10 9 9
10 10 9 10 10 10 10 10 9 9 9 9 9 9 9 9 9 9 9 10 9 9
10 10 9 10 9 9 9 9 9 9 9 9 9 9 9 9 9 10 10 9 8 8
9 9 10 9 9 9 9 9 9 10 9 9 9 9 8 8 8 9 9 8 8 8
9 9 9 9 9 9 9 9 9 9 9 9 9 9 9 8 8 8 8 8 8 8
8 8 8 8 8 8 8 8 8 8 8 8 8 8 8 8 8 8 8 9 8 8
8 8 8 9 9 9 8 8 8 8 8 8 8 8 8 8 8 8 8 8 8 8
8 8 8 8 8 9 8 8 8 8 8 8 8 8 8 8 8 8 8 8 8 8
7 7 7 7 7 8 7 7 8 8 8 7 7 8 8 8 8 8 8 8 8 8
3 4 5 5 5 5 5 5 5 5 6 6 6 6 6 6 6 6 6 6 6 6
1 2 3 3 1 2 3 3 3 3 3 3 4 3 3 3 3 3 3 3 2 2
0 0 2 2 0 -1 2 2 2 1 1 2 2 1 1 1 1 1 1 1 1 1